EHI
0 0 0 0 0 0 0 0 0 0 0 0 0 0 0 0 0 0 0 0 0 0 0 0 0 0 0 0 0 0 0 0 0 0 0 0 0 0 0 0 0 0 0
1 0 0 0 0 0 0 0 0 0 0 0 0 0 0 0 0 0 0 0 0 0 0 0 0 0 0 0 0 0 0 0 0 0 0 0 0 0 0 0 0 0 0
2 1 0 0 0 0 0 0 0 0 0 0 0 0 0 0 0 0 0 0 0 0 0 0 0 0 0 0 0 0 0 0 0 0 0 0 0 0 0 0 0 0 0
2 1 0 0 0 0 0 0 0 0 0 0 0 0 0 0 0 0 0 0 0 0 0 0 0 0 0 0 0 0 0 0 0 0 0 0 0 0 0 0 0 0 0
1 0 0 0 0 0 0 0 0 0 0 0 0 0 0 0 0 0 0 0 0 0 0 0 0 0 0 0 0 0 0 0 0 0 0 0 0 0 0 0 0 0 0
0 0 0 0 0 0 0 0 0 0 0 0 0 0 0 0 0 0 0 0 0 0 0 0 0 0 0 0 0 0 0 0 0 0 0 0 0 0 0 0 0 0 0
0 0 0 0 0 0 0 0 0 0 0 0 0 0 0 0 0 0 0 0 0 0 0 0 0 0 0 0 0 0 0 0 0 0 0 0 0 0 0 0 0 0 0
0 0 0 0 0 0 0 0 0 0 0 0 0 0 0 0 0 0 0 0 0 0 0 0 0 0 0 0 0 0 0 0 0 0 0 0 0 0 0 0 0 0 0
0 1 1 1 0 0 0 0 0 1 0 0 0 0 0 0 0 0 0 0 0 0 0 0 0 0 0 0 0 0 0 0 0 0 0 0 0 0 0 0 0 0 0
1 2 2 1 0 0 0 0 0 0 0 0 0 0 0 0 0 0 0 0 0 0 0 0 0 0 0 0 0 0 0 0 0 0 0 0 0 0 0 0 0 0 0
2 3 3 2 1 0 0 0 0 0 0 0 0 0 0 0 0 0 0 0 0 0 0 0 0 0 0 0 0 0 0 0 0 0 0 0 0 0 0 0 0 0 0
3 3 3 3 1 0 1 1 0 0 0 0 0 0 0 0 0 0 0 0 0 0 0 0 0 0 0 0 0 0 0 0 0 0 0 0 0 0 0 0 0 0 0
4 4 5 5 3 2 2 2 1 0 0 0 0 0 0 0 0 0 0 0 0 0 0 0 0 0 0 0 0 0 0 0 0 0 0 0 0 0 0 0 0 0 0
5 6 6 5 5 4 3 3 2 1 1 0 0 0 0 0 0 0 0 0 0 0 0 0 0 0 0 0 0 0 0 0 0 0 0 0 0 0 0 0 0 0 0
5 6 6 5 5 4 3 3 2 2 1 0 0 0 0 0 0 0 0 0 0 0 0 0 0 0 0 0 0 0 0 0 0 0 0 0 0 0 0 0 0 0 0
4 4 4 5 5 4 3 2 1 1 1 0 0 0 0 0 0 0 0 0 0 0 0 0 0 0 0 0 0 0 0 0 0 0 0 0 0 0 0 0 0 0 0
5 5 4 4 4 3 2 1 0 0 0 0 0 0 0 0 0 0 0 0 0 0 0 0 0 0 0 0 0 0 0 0 0 0 0 0 0 0 0 0 0 0 0
4 4 3 2 2 1 1 0 0 0 0 0 0 0 0 0 0 0 0 0 0 0 0 0 0 0 0 0 0 0 0 0 0 0 0 0 0 0 0 0 0 0 0
2 1 1 1 0 0 0 0 0 0 0 0 0 0 0 0 0 0 0 0 0 0 0 0 0 0 0 0 0 0 0 0 0 0 0 0 0 0 0 0 0 0 0
0 0 0 0 0 0 0 0 0 0 0 0 0 0 0 0 0 0 0 0 0 0 0 0 0 0 0 0 0 0 0 0 0 0 0 0 0 0 0 0 0 0 0
0 0 0 0 0 0 0 1 1 0 0 0 0 0 0 0 0 0 0 0 0 0 0 0 0 0 0 0 0 0 0 0 0 0 0 0 0 0 0 0 0 0 0
0 0 0 0 0 0 1 2 1 0 0 0 0 0 0 0 0 0 0 0 0 0 0 0 0 0 0 0 0 0 0 0 0 0 0 0 0 0 0 0 0 0 0
0 0 0 0 0 0 1 2 1 0 0 0 0 0 0 0 0 0 0 0 0 0 0 0 0 0 0 0 0 0 0 1 0 0 0 0 0 0 0 0 0 0 0
0 0 0 0 0 0 1 1 0 0 0 0 0 0 0 0 0 0 0 0 0 0 0 0 0 0 0 0 0 0 0 0 0 0 0 0 0 0 0 0 0 0 0
0 0 0 0 0 0 0 0 0 0 0 0 0 0 0 0 0 0 0 0 0 0 0 0 0 0 0 0 0 0 0 0 0 0 0 0 0 0 0 0 0 0 0
0 0 0 0 0 0 0 1 1 1 0 0 0 0 0 0 0 0 0 0 0 0 0 0 0 0 0 0 0 0 0 0 0 0 0 0 0 0 0 0 0 0 0
Wind_Speed
6 5 4 3 4 3 2 2 2 3 4 4 3 3 3 3 3 3 2 1 1 1 2 3 3 2 2 2 2 2 2 3 3 1 1 1 2 2 1 1 2 2 2
6 6 5 4 4 4 3 2 2 2 3 4 3 3 3 3 3 3 2 2 2 3 3 4 3 3 3 2 2 2 2 2 3 2 1 1 1 1 1 0 1 2 2
6 6 5 5 4 4 4 3 3 3 3 3 3 3 3 3 3 3 2 2 3 3 3 3 3 4 3 2 3 3 2 2 2 2 1 1 1 1 1 1 2 1 1
7 6 6 6 5 4 5 4 3 3 3 2 3 3 3 3 2 2 2 2 3 3 3 4 4 4 3 3 3 3 3 2 2 2 1 1 1 1 2 2 2 2 1
7 6 5 6 5 4 5 4 3 3 3 2 3 3 3 3 3 3 2 2 3 3 4 5 6 7 7 5 3 3 3 2 2 2 1 1 1 1 1 1 1 2 2
7 7 6 6 5 5 5 5 4 3 3 3 3 3 4 4 6 7 4 3 2 3 3 4 5 5 6 6 6 6 5 3 2 2 1 1 1 1 1 1 1 2 2
8 7 7 6 6 5 5 5 5 4 3 3 3 4 5 4 5 5 5 3 3 3 3 3 4 4 4 3 3 4 4 4 3 2 1 1 1 1 1 1 1 1 2
8 8 8 7 7 6 5 5 5 4 4 3 3 4 4 4 4 3 3 2 2 3 3 3 3 3 3 3 3 3 3 2 2 2 2 1 2 1 1 0 1 2 2
8 8 8 8 7 7 6 6 5 5 4 4 4 4 4 3 3 3 2 1 2 2 4 5 4 5 5 6 4 3 3 2 2 3 3 2 3 4 3 3 3 3 3
8 8 8 8 8 7 7 6 4 5 5 4 4 4 4 4 3 3 3 1 2 2 3 4 6 6 6 6 4 3 3 2 2 2 2 2 1 2 3 2 1 1 2
7 7 7 8 8 7 6 5 5 5 5 4 5 3 4 4 4 4 4 2 1 2 3 3 3 6 6 6 5 3 3 2 2 2 2 2 2 2 1 1 1 1 0
8 7 7 7 7 7 6 5 5 5 5 4 4 3 3 4 5 4 5 3 3 3 3 3 3 6 6 5 4 4 5 4 2 2 2 2 2 1 1 1 2 2 1
8 7 7 7 6 6 6 6 5 5 4 4 4 3 3 3 3 6 6 5 4 3 3 5 6 5 4 3 3 4 3 2 2 2 1 1 1 1 1 2 3 2 3
8 7 7 7 6 6 5 4 4 4 4 4 4 4 3 3 3 3 3 3 4 4 3 4 5 4 2 2 2 1 1 1 1 1 1 1 1 2 2 1 1 2 2
7 7 6 6 6 5 4 3 4 3 4 4 3 4 4 4 4 7 5 4 3 4 4 3 2 1 1 1 1 1 1 1 1 1 1 1 2 1 1 1 1 1 2
6 6 5 5 5 5 6 5 6 5 7 7 6 5 4 6 8 9 8 7 7 8 5 3 2 1 1 1 1 1 1 1 1 1 1 1 1 1 2 1 1 1 2
6 5 5 5 6 6 6 6 5 5 7 7 6 7 6 7 9 9 9 8 7 7 3 2 2 2 1 1 1 1 1 1 1 1 1 1 1 1 2 2 2 1 2
5 6 5 4 5 5 5 5 5 6 4 2 3 5 7 7 8 9 9 8 4 3 2 2 2 2 2 1 1 1 1 1 1 1 1 1 1 1 1 2 2 2 2
5 4 5 4 4 4 5 5 5 5 5 4 3 3 5 7 8 7 7 3 3 3 2 2 2 2 2 1 1 1 1 1 1 1 1 1 1 1 1 2 2 3 2
4 7 6 5 4 4 4 5 5 5 5 4 4 4 4 4 4 4 3 2 3 3 2 2 2 2 2 1 1 1 1 1 1 1 1 2 2 1 2 2 2 2 2
5 6 7 5 4 4 4 5 5 5 5 4 4 5 8 5 5 5 4 3 3 2 2 2 2 2 2 1 1 1 2 1 1 1 1 1 2 2 2 2 2 2 3
5 4 4 4 3 3 3 4 4 5 5 5 4 5 8 5 4 4 3 3 3 2 2 2 2 2 2 2 2 1 1 2 2 2 2 2 2 2 2 2 2 3 3
5 5 4 4 4 5 4 3 4 4 4 5 5 5 5 4 4 4 4 3 3 3 2 3 3 3 2 2 2 2 2 2 1 1 2 2 2 2 2 2 3 3 3
5 5 5 4 4 4 4 4 4 4 4 4 4 4 4 4 4 4 4 4 3 3 3 3 3 4 5 3 3 3 3 3 2 2 2 2 2 2 2 2 2 3 3
5 5 4 4 4 4 4 4 4 4 4 5 4 4 5 5 4 4 4 4 4 4 4 4 3 4 5 6 5 4 5 6 4 3 2 1 1 2 2 3 3 3 3
4 5 4 4 4 4 4 4 4 4 4 4 4 4 5 5 4 4 4 4 4 4 4 4 5 5 5 5 6 6 6 6 5 5 3 1 2 2 3 2 3 3 3
Wind_Direction
168 159 155 146 141 137 137 140 140 138 131 130 134 129 125 122 108 97 99 71 85 98 101 102 87 72 77 67 52 64 59 82 100 52 77 102 101 91 89 96 137 131 121
162 159 164 155 159 154 150 160 149 140 138 141 136 130 122 115 117 121 119 94 71 67 74 90 95 84 70 64 58 68 71 87 107 108 61 42 83 130 129 172 122 128 125
160 167 163 156 168 162 156 158 156 143 142 138 136 128 116 114 116 125 128 116 102 89 82 84 92 90 78 70 67 62 54 71 84 102 83 33 40 47 57 11 27 27 138
162 169 163 164 174 163 152 154 155 139 125 121 118 106 94 88 83 80 96 101 100 94 94 84 75 77 76 70 75 65 62 62 66 76 76 54 40 18 56 29 2 339 332
163 171 168 163 160 151 143 142 140 127 122 109 100 98 90 80 54 48 46 89 101 96 90 88 82 80 76 71 76 67 66 67 71 73 63 44 35 36 19 344 360 330 334
167 173 166 164 152 148 146 139 132 123 118 108 105 103 91 76 68 57 43 48 70 95 101 108 112 96 92 85 88 90 88 91 89 78 51 56 31 41 20 15 17 11 328
172 170 165 160 149 153 149 136 132 126 110 103 100 99 95 85 78 61 53 38 40 54 69 86 89 91 97 101 106 110 92 95 100 102 78 45 58 27 45 12 355 330 271
175 169 161 157 153 152 146 141 142 133 128 125 120 115 110 102 94 80 62 48 56 57 60 69 89 88 66 71 88 98 96 86 110 111 98 61 58 47 67 254 276 318 309
174 167 161 157 153 153 153 153 151 143 140 140 134 129 122 118 123 115 91 92 99 85 77 60 71 85 66 59 66 74 72 59 90 113 113 90 69 48 39 39 17 16 342
171 164 158 156 154 157 160 157 148 144 147 139 135 141 137 132 139 136 130 115 115 99 92 79 70 85 74 60 65 67 60 33 38 53 56 24 32 34 33 50 43 24 348
152 150 152 154 155 156 155 150 143 140 141 143 143 141 134 134 145 141 129 111 110 109 100 92 83 88 80 66 62 66 59 29 16 44 56 43 45 51 37 14 17 72 48
141 146 149 150 154 154 149 150 147 147 150 153 147 145 141 138 144 149 139 131 94 94 98 98 99 96 86 75 68 53 39 29 24 35 43 33 29 21 20 20 4 8 14
140 145 147 146 145 147 150 153 153 154 157 163 155 157 153 140 146 149 148 141 123 104 100 113 117 105 91 78 67 59 49 40 36 38 28 10 5 25 40 24 3 356 342
147 148 147 151 149 148 148 154 156 163 170 171 163 163 159 146 141 144 143 135 128 122 114 109 106 99 82 74 75 63 75 67 68 47 14 359 9 28 30 25 356 343 346
146 151 154 152 148 145 137 135 155 153 165 164 163 158 155 160 161 150 148 149 152 148 134 119 114 114 116 105 96 85 73 54 36 17 23 13 8 8 358 4 10 4 350
149 156 155 150 147 144 135 110 71 88 101 107 109 119 120 132 138 137 136 135 137 139 131 134 145 146 143 136 124 97 77 69 55 45 29 14 2 355 347 353 7 2 331
155 156 152 152 151 151 148 144 131 80 78 85 97 110 117 130 135 136 133 125 125 129 123 140 141 137 125 110 105 98 84 71 64 53 39 18 3 347 344 340 342 340 327
151 150 145 150 154 154 154 154 151 146 134 105 86 113 126 128 130 132 128 116 105 114 133 140 133 117 106 98 93 91 81 65 59 46 31 10 354 342 341 338 333 331 318
145 144 145 143 143 145 145 146 147 147 144 140 128 116 131 124 117 122 130 127 139 138 128 116 112 109 104 101 95 85 86 85 64 50 17 348 340 343 334 326 324 330 328
136 138 137 136 139 144 147 150 154 155 156 152 150 149 144 130 127 134 142 136 130 131 128 128 119 113 112 109 103 87 68 58 47 35 15 3 357 356 341 337 337 330 320
130 137 137 137 144 150 155 158 159 155 154 152 153 155 152 148 149 149 149 146 143 142 138 132 123 115 109 97 87 75 68 54 47 36 19 1 356 346 337 336 332 328 326
137 143 147 146 144 146 149 150 149 148 147 148 142 140 148 139 139 141 143 143 140 134 128 124 117 110 105 101 95 81 64 55 39 23 8 354 349 343 341 342 340 334 329
140 141 141 140 137 138 136 131 133 138 143 146 144 139 144 146 142 137 134 130 122 117 110 107 106 95 83 77 75 77 72 55 32 19 3 351 347 341 339 338 336 333 328
138 143 146 142 138 139 138 138 139 142 142 140 137 136 139 139 131 126 123 117 116 112 107 105 103 97 87 76 71 70 63 50 32 25 13 351 345 344 341 333 327 326 324
137 139 140 140 140 140 140 140 140 137 136 136 134 131 130 128 126 124 121 116 115 111 106 100 96 91 87 83 80 72 62 53 41 17 358 352 359 357 339 328 327 329 329
130 134 134 133 135 136 138 140 137 134 130 127 125 126 126 126 127 124 120 116 112 109 103 97 93 87 83 83 81 75 62 47 31 11 356 355 6 354 340 328 328 329 326